Location: Melbourne
(37.8170°S, 144.9670°E)
Time: 00:50:33
(UTC+11:00)

CZ-3 R/B - Visible Passes

Search period start: 24 February 2017 00:00
Search period end: 06 March 2017 00:00
Orbit: 237 x 10613 km, 28.5° (Epoch: 22 February)

Date Brightness Start Highest point End Pass type
(mag) Time Alt. Az. Time Alt. Az. Time Alt. Az.
24 Feb 4.7 03:23:37 36° N 03:25:23 37° NNE 03:37:10 10° ENE visible
24 Feb 5.7 23:24:28 10° N 00:39:23 - ENE 23:48:37 18° N visible
25 Feb 4.1 04:12:03 35° NNW 04:19:06 42° N 04:28:26 10° ENE visible
26 Feb 5.4 00:17:32 10° NNW 01:27:42 21° ENE 01:33:29 10° ENE visible
26 Feb 3.6 05:00:21 27° NW 05:11:49 46° N 05:19:10 10° ENE visible
26 Feb 6.8 21:36:39 10° NNE 21:52:59 11° NE 21:53:25 11° NE visible
27 Feb 5.0 01:14:03 10° NNW 02:15:56 33° NE 02:26:14 10° ENE visible
27 Feb 3.1 05:48:33 17° WNW 06:03:44 47° N 06:09:32 10° ENE visible
27 Feb 6.7 22:05:53 10° N 22:42:08 18° NNE 22:42:08 18° NNE visible
28 Feb 4.7 02:13:05 10° NW 03:04:25 43° NNE 03:17:49 10° E visible
28 Feb 2.7 06:40:02 10° WNW 06:55:02 43° NNW 06:59:37 10° ENE visible
28 Feb 5.7 22:53:27 10° N 00:19:29 10° ENE 23:30:49 23° N visible
01 Mar 4.2 03:52:04 43° NNW 03:58:04 48° N 04:08:41 10° E visible
01 Mar 5.4 23:46:10 10° NNW 01:07:25 23° ENE 01:13:32 10° E visible
02 Mar 3.7 04:40:00 34° NW 04:50:40 52° N 04:59:05 10° ENE visible
02 Mar 6.7 20:58:49 10° NNE 21:30:29 13° NE 21:35:25 13° NE visible
03 Mar 5.0 00:42:08 10° NNW 01:55:15 36° NE 02:05:46 10° E visible
03 Mar 3.3 05:27:49 22° WNW 05:42:27 52° N 05:49:07 10° ENE visible
03 Mar 6.6 21:34:54 10° N 22:24:01 21° NNE 22:24:01 21° NNE visible
04 Mar 4.8 01:40:48 10° NW 02:42:59 48° NNE 02:56:57 10° E visible
04 Mar 2.9 06:15:33 11° W 06:33:32 48° NNW 06:38:51 10° ENE visible
04 Mar 5.8 22:22:36 10° NNW 23:58:05 11° E 23:58:23 10° E visible
05 Mar 4.4 02:41:46 10° NW 03:35:16 54° N 03:47:29 10° E visible
